Valley City, ND

10:25 AM CST on December 13, 2019 (GMT -0600)
Valley City

Weather History for KBAC - November, 2019

Change the Weather History Date:

Tuesday, November 12, 2019

  Actual Average (KJMS) Record (KJMS)
Temperature  
Mean Temperature 10 °F -  
Max Temperature 23 °F 34 °F 67 °F (1999)
Min Temperature -4 °F 18 °F -13 °F (1911)
Degree Days  
Heating Degree Days 56    
Moisture  
Dew Point 8 °F    
Average Humidity 81    
Maximum Humidity 100    
Minimum Humidity 68    
Precipitation  
Precipitation 0.00 in - - ()
Sea Level Pressure  
Sea Level Pressure 30.08 in    
Wind  
Wind Speed 11 mph (South)    
Max Wind Speed 22 mph    
Max Gust Speed 29 mph    
Visibility 10 miles    
Events Snow    
Averages and records for this station are not official NWS values.
T = Trace of Precipitation, MM = Missing Value Source: NWS Daily Summary

Daily Weather History Graph

Daily Weather History Graph

Search for Another Location

Airport or City:

Astronomy

Nov. 12, 2019 Rise Set
Actual Time 7:30 AM CST 5:01 PM CST
Civil Twilight 6:57 AM CST 5:34 PM CST
Nautical Twilight 6:21 AM CST 6:10 PM CST
Astronomical Twilight 5:45 AM CST 6:46 PM CST
Moon 5:30 PM CST (11/12) 7:20 AM CST (11/12)
Length of Visible Light 10h 36m
Length of Day
9h 30m
Full, 100% of the Moon is Illuminated
Nov 12
Full
Nov 19
Last Quarter
Nov 26
New
Dec 4
First Quarter
Dec 11
Full

Hourly Weather History & Observations

Time (CST) Temp. Windchill Dew Point Humidity Pressure Visibility Wind Dir Wind Speed Gust Speed Precip Events Conditions
12:15 AM -4.0 °F -17.8 °F -7.6 °F 85% 30.51 in 10.0 mi SSW 6.9 mph - N/A Snow Light Snow
12:35 AM -4.0 °F -17.8 °F -7.6 °F 85% 30.50 in 10.0 mi South 6.9 mph - N/A   Clear
12:55 AM -4.0 °F -16.3 °F -7.6 °F 85% 30.49 in 10.0 mi South 5.8 mph - N/A   Clear
1:15 AM -4.0 °F -16.3 °F -7.6 °F 85% 30.48 in 10.0 mi South 5.8 mph - N/A   Clear
1:35 AM -4.0 °F -19.0 °F -7.6 °F 85% 30.47 in 10.0 mi South 8.1 mph - N/A   Clear
1:55 AM -4.0 °F -19.0 °F -7.6 °F 85% 30.46 in 10.0 mi South 8.1 mph - N/A   Clear
2:15 AM -4.0 °F -19.0 °F -7.6 °F 85% 30.45 in 10.0 mi South 8.1 mph - N/A Snow Light Snow
2:35 AM -4.0 °F -20.2 °F -7.6 °F 85% 30.44 in 10.0 mi SSW 9.2 mph - N/A   Clear
2:55 AM -4.0 °F -20.2 °F -7.6 °F 85% 30.42 in 10.0 mi South 9.2 mph - N/A   Clear
3:15 AM -4.0 °F -19.0 °F -7.6 °F 85% 30.42 in 10.0 mi South 8.1 mph - N/A Snow Light Snow
3:35 AM -2.2 °F -15.6 °F -5.8 °F 85% 30.40 in 10.0 mi South 6.9 mph - N/A   Clear
3:55 AM -2.2 °F -18.0 °F -5.8 °F 85% 30.38 in 10.0 mi South 9.2 mph - N/A Snow Light Snow
4:15 AM -0.4 °F -17.6 °F -4.0 °F 85% 30.36 in 10.0 mi South 11.5 mph - N/A   Clear
4:35 AM 1.4 °F -15.3 °F -2.2 °F 85% 30.35 in 10.0 mi South 11.5 mph - N/A   Clear
4:55 AM 1.4 °F -16.9 °F -2.2 °F 85% 30.33 in 10.0 mi South 13.8 mph - N/A Snow Light Snow
5:15 AM 3.2 °F -15.3 °F -0.4 °F 85% 30.32 in 10.0 mi South 15.0 mph - N/A Snow Light Snow
5:35 AM 3.2 °F -15.9 °F -0.4 °F 85% 30.30 in 10.0 mi South 16.1 mph - N/A   Clear
5:55 AM 3.2 °F -15.9 °F -0.4 °F 85% 30.29 in 10.0 mi South 16.1 mph 21.9 mph N/A   Clear
6:35 AM 5.0 °F -13.6 °F -0.4 °F 78% 30.26 in 10.0 mi South 16.1 mph - N/A   Clear
6:55 AM 5.0 °F -13.0 °F -0.4 °F 78% 30.24 in 10.0 mi South 15.0 mph 21.9 mph N/A   Clear
7:15 AM 5.0 °F -12.3 °F 1.4 °F 85% 30.24 in 10.0 mi South 13.8 mph 21.9 mph N/A   Clear
7:35 AM 5.0 °F -12.3 °F 1.4 °F 85% 30.22 in 10.0 mi South 13.8 mph - N/A   Clear
7:55 AM 5.0 °F -13.0 °F 1.4 °F 85% 30.21 in 10.0 mi South 15.0 mph 20.7 mph N/A   Clear
8:15 AM 5.0 °F -14.2 °F 1.4 °F 85% 30.19 in 10.0 mi South 17.3 mph 23.0 mph N/A   Clear
8:35 AM 6.8 °F -12.4 °F 1.4 °F 79% 30.17 in 10.0 mi South 18.4 mph - N/A   Clear
8:55 AM 6.8 °F -11.3 °F 3.2 °F 85% 30.15 in 10.0 mi SSE 16.1 mph 23.0 mph N/A   Clear
9:15 AM 8.6 °F -9.5 °F 3.2 °F 79% 30.13 in 10.0 mi SSE 17.3 mph 25.3 mph N/A Snow Light Snow
9:35 AM 10.4 °F -9.1 °F 5.0 °F 79% 30.11 in 10.0 mi South 21.9 mph 27.6 mph N/A Snow Light Snow
9:55 AM 12.2 °F -4.3 °F 5.0 °F 73% 30.10 in 10.0 mi South 16.1 mph 25.3 mph N/A Snow Light Snow
10:15 AM 12.2 °F -5.8 °F 6.8 °F 79% 30.08 in 10.0 mi South 19.6 mph 26.5 mph N/A Snow Light Snow
10:55 AM 15.8 °F -0.6 °F 6.8 °F 68% 30.06 in 10.0 mi SSE 18.4 mph 28.8 mph N/A Snow Light Snow
11:15 AM 15.8 °F -0.6 °F 6.8 °F 68% 30.05 in 10.0 mi South 18.4 mph - N/A Snow Light Snow
11:35 AM 17.6 °F 1.7 °F 8.6 °F 68% 30.04 in 10.0 mi SSE 18.4 mph 25.3 mph N/A Snow Light Snow
11:55 AM 17.6 °F 2.2 °F 8.6 °F 68% 30.01 in 10.0 mi SSE 17.3 mph 24.2 mph N/A Snow Light Snow
12:15 PM 17.6 °F 0.9 °F 10.4 °F 73% 30.00 in 10.0 mi SSE 20.7 mph - N/A Snow Light Snow
12:35 PM 19.4 °F 3.6 °F 10.4 °F 68% 29.98 in 10.0 mi SSE 19.6 mph 28.8 mph N/A Snow Light Snow
12:55 PM 19.4 °F 3.6 °F 10.4 °F 68% 29.96 in 10.0 mi SSE 19.6 mph - N/A   Clear
1:15 PM 19.4 °F 5.0 °F 12.2 °F 74% 29.96 in 10.0 mi SSE 16.1 mph - N/A   Clear
1:35 PM 19.4 °F 6.6 °F 12.2 °F 74% 29.94 in 10.0 mi SSE 12.7 mph 20.7 mph N/A   Clear
1:55 PM 21.2 °F 8.9 °F 14.0 °F 74% 29.93 in 10.0 mi SSE 12.7 mph 18.4 mph N/A   Clear
2:15 PM 21.2 °F 10.1 °F 14.0 °F 74% 29.93 in 10.0 mi SSE 10.4 mph - N/A   Clear
2:35 PM 23.0 °F 8.7 °F 14.0 °F 68% 29.90 in 10.0 mi South 18.4 mph - N/A   Scattered Clouds
2:55 PM 23.0 °F 9.2 °F 14.0 °F 68% 29.89 in 10.0 mi South 17.3 mph 24.2 mph N/A Snow Light Snow
3:15 PM 23.0 °F 9.6 °F 15.8 °F 74% 29.90 in 10.0 mi South 16.1 mph 25.3 mph N/A Snow Light Snow
3:35 PM 23.0 °F 10.1 °F 15.8 °F 74% 29.89 in 10.0 mi SSW 15.0 mph 21.9 mph N/A Snow Light Snow
3:55 PM 23.0 °F 10.1 °F 15.8 °F 74% 29.88 in 10.0 mi South 15.0 mph 21.9 mph N/A Snow Light Snow
4:15 PM 23.0 °F 9.6 °F 15.8 °F 74% 29.89 in 10.0 mi South 16.1 mph 23.0 mph N/A Snow Light Snow
4:35 PM 23.0 °F 10.1 °F 15.8 °F 74% 29.87 in 10.0 mi South 15.0 mph - N/A   Partly Cloudy
4:55 PM 21.2 °F 7.8 °F 15.8 °F 80% 29.88 in 10.0 mi SSW 15.0 mph - N/A   Clear
5:15 PM 21.2 °F 7.8 °F 15.8 °F 80% 29.86 in 10.0 mi South 15.0 mph - N/A   Partly Cloudy
5:35 PM 21.2 °F 10.1 °F 15.8 °F 80% 29.86 in 10.0 mi South 10.4 mph - N/A   Scattered Clouds
5:55 PM 21.2 °F 9.5 °F 17.6 °F 86% 29.85 in 10.0 mi South 11.5 mph - N/A   Mostly Cloudy
6:15 PM 21.2 °F 9.5 °F 17.6 °F 86% 29.85 in 10.0 mi South 11.5 mph - N/A   Mostly Cloudy
6:35 PM 21.2 °F 11.7 °F 17.6 °F 86% 29.85 in 10.0 mi South 8.1 mph - N/A   Mostly Cloudy
6:55 PM 21.2 °F 11.7 °F 17.6 °F 86% 29.85 in 10.0 mi South 8.1 mph - N/A   Overcast
7:15 PM 21.2 °F 11.7 °F 17.6 °F 86% 29.83 in 10.0 mi South 8.1 mph - N/A   Overcast
7:35 PM 21.2 °F 11.7 °F 17.6 °F 86% 29.83 in 10.0 mi South 8.1 mph - N/A   Overcast
7:55 PM 23.0 °F 13.1 °F 19.4 °F 86% 29.83 in 10.0 mi South 9.2 mph - N/A   Overcast
8:15 PM 23.0 °F 14.7 °F 19.4 °F 86% 29.83 in 10.0 mi South 6.9 mph - N/A   Overcast
8:35 PM 23.0 °F 15.8 °F 19.4 °F 86% 29.82 in 10.0 mi South 5.8 mph - N/A   Overcast
9:15 PM 23.0 °F 15.8 °F 19.4 °F 86% 29.82 in 10.0 mi South 5.8 mph - N/A   Overcast
9:35 PM 23.0 °F 17.0 °F 19.4 °F 86% 29.82 in 10.0 mi South 4.6 mph - N/A   Mostly Cloudy
9:55 PM 23.0 °F 15.8 °F 19.4 °F 86% 29.81 in 10.0 mi South 5.8 mph - N/A   Overcast
10:15 PM 23.0 °F 15.8 °F 19.4 °F 86% 29.82 in 10.0 mi SSW 5.8 mph - N/A   Overcast
10:35 PM 23.0 °F 15.8 °F 19.4 °F 86% 29.81 in 9.0 mi SSW 5.8 mph - N/A   Overcast
11:15 PM 23.0 °F 14.7 °F 23.0 °F 100% 29.79 in 2.5 mi South 6.9 mph - N/A Snow Light Snow
11:35 PM 23.0 °F 14.7 °F 23.0 °F 100% 29.78 in 3.0 mi SSW 6.9 mph - N/A Snow Light Snow
11:55 PM 23.0 °F 13.9 °F 23.0 °F 100% 29.78 in 7.0 mi SW 8.1 mph - N/A Snow Light Snow